STARLINK-1316, 45415

Orbit data source: Space-Track

STARLINK-1316, 45415 is a payload satellite owned by SpaceX/Seattle (US) in LEO that was launched on Wed, 18 Mar 2020 UTC via an FALCON 9 launch vehicle from the Air Force Eastern Test Range (AFETR). Payload-class satellites include a variety of spacecraft equipped with specific instruments for various scientific and technological missions. These include communications satellites like Starlink; space stations such as the ISS; scientific satellites like the Hubble; Earth observation satellites from companies like Planet Labs, Umbra, and HawkEye 360; GPS; miniature CubeSats for education and research; and military/defense satellites.

Loading next visibility...
Identifier
45415, 2020-019BH
Orbit
LEO
Country
Flag of USUS
Related business
Manufacturer
SpaceX/Seattle
Mission
Partially operational Commercial Communications
Bus & Motor
STARLINK, Unknown motor
Mass
260 kg wet, ~248 kg dry
Launch date (UTC)
2020-03-18 (7 years ago)
Launch vehicle
FALCON 9
Launch site
Air Force Eastern Test Range (AFETR)
Object type
Payload
Rocket body
Debris
Shape & HBR
Box + 1 Pan, 10.1 m
Radar Cross Section
13.562 m², Large (>1 m²)

Expand to show TLE details & history
Last TLE update: 11 hours ago

TLE from 11 hours ago
0 STARLINK-1316
1 45415U 20019BH  26264.54954146  .00039209  00000-0  72399-3 0  9995
2 45415  53.1515 286.6250 0005990  28.8382 331.2957 15.48715314360169
Epoch: 2026-09-21T13:11Z
TLE epoch observation values (Epoch: 2026-09-21T13:11:20.382Z)
Latitude
0.00002°
Longitude
88.36232°
Altitude
417.818 km
Speed
7.664 km/s
True Right ascension
19h 06m 30s
True Declination
0° 00' 00"
Sunlit
Object was in daylight at epoch
Visualization orbit readout
Latitude
Unknown
Longitude
Unknown
Altitude
Unknown
Speed
Unknown
Apparent Right ascension
Unknown
Apparent Declination
Unknown
Sunlit
N/A
Visualization observer readout
Local Sidereal Time
17:14:38
Azimuth
Unknown
Elevation
Unknown
Doppler factor
Unknown
Orbital elements
Apogee altitude
424.816 km
Perigee altitude
416.67 km
Semi-major axis
6,798.88 km
Eccentricity
0.0006
Inclination
53.1515°
RAAN
286.625°
Arg. of periapsis
28.8382°
True anomaly
331.26271°
Mean anomaly
331.2957°
Eccentric anomaly
331.27921°
Mean motion
3.87157 °/min
Orbital period
92.99 mins
BSTAR
0.00072399
Loading maneuver chart data...
Computing Atmospheric mass density...

Documentation

Showing up to 5 results
|